Regional Weather Roundup
Issued by NWS

Home | Current Version | Previous Version | Graphics & Text | Print | Product List | Glossary On
Versions: 1 2 3 4 5 6 7 8 9 10 11 12 13 14 15 16 17 18 19 20 21 22 23 24 25 26 27 28 29 30 31 32 33 34 35 36 37 38 39 40 41 42 43 44 45 46 47 48 49 50
000
ASUS45 KBOI 010310
RWRID

IDAHO REGIONAL WEATHER ROUNDUP
NATIONAL WEATHER SERVICE BOISE ID
900 PM MDT MON AUG 31 2015

NOTE: "FAIR" INDICATES FEW OR NO CLOUDS BELOW 12000 FEET
WITH NO SIGNIFICANT WEATHER AND/OR OBSTRUCTIONS TO VISIBILITY

IDZ012-014-010400-
SOUTHWEST IDAHO


CITY           SKY/WX    TMP DP  RH WIND       PRES   REMARKS
BOISE          PTCLDY    74  42  31 CALM      29.89S
CALDWELL         N/A     75  43  31 NW3       29.89S
MOUNTAIN HOME  CLEAR     72  39  30 W7        29.89R
$$

IDZ016-017-010400-
SOUTHCENTRAL IDAHO


CITY           SKY/WX    TMP DP  RH WIND       PRES   REMARKS
BURLEY         CLEAR     62  41  46 CALM      29.96R
JEROME         PTCLDY    70  38  31 SE7       29.96R
TWIN FALLS     PTCLDY    62  34  35 SE7       29.96S
$$

IDZ019>023-010400-
SOUTHEAST IDAHO


CITY           SKY/WX    TMP DP  RH WIND       PRES   REMARKS
IDAHO FALLS    CLEAR     70  31  23 S7        29.99S
POCATELLO      CLEAR     63  33  32 S6        29.99R
REXBURG        CLEAR     66  30  26 S7        29.99S
$$

IDZ006-010-011-018-031-032-010400-
CENTRAL IDAHO MOUNTAINS


CITY           SKY/WX    TMP DP  RH WIND       PRES   REMARKS
MCCALL         CLEAR     60  37  42 E3        30.00S
HAILEY         PTCLDY    68  32  26 NW7       30.04R
STANLEY          N/A     59  31  34 SW5       30.09R
SALMON         PTCLDY    66  37  34 S5        29.87R
CHALLIS        PTCLDY    70  31  23 W12       29.96R
$$

IDZ002-004-006-007-026-010400-
NORTHERN IDAHO


CITY           SKY/WX    TMP DP  RH WIND       PRES   REMARKS
LEWISTON       MOCLDY    72  44  36 NW6       29.86S
LOWELL           N/A     61  55  81 CALM      29.89R
COEUR D`ALENE  CLOUDY    63  46  55 SW5       29.88S
MULLAN PASS    MOCLDY    49  39  68 SW6       30.01F
$$


USA.gov is the U.S. government's official web portal to all federal, state and local government web resources and services.